[[{"header":{"parameterUnit":"m.s-1","parameterCategory":1,"la1":30.2992,"la2":30.254,"lo1":-89.0895,"lo2":-89.0443,"dy":0.0025,"dx":0.0025,"nx":19,"ny":19,"refTime":"2026-05-19T03:00:00:Z","depth":0,"parameterNumber":2,"parameterNumberName":"U-component_of_WINDS"},"data":[0,0,0,-2.4664,-2.4665,-2.4718,-2.4718,-2.4806,-2.4807,0,0,0,0,0,0,0,0,0,0,0,-2.466,-2.4661,-2.4664,-2.4665,-2.4718,-2.4718,-2.4806,-2.4807,0,0,0,0,0,0,0,0,0,0,0,-2.4659,-2.466,-2.4662,-2.4665,-2.4718,-2.4718,-2.4806,-2.4759,0,0,0,0,0,0,0,0,0,0,-2.4704,-2.4711,-2.466,-2.4662,-2.4666,-2.4718,-2.4718,-2.4756,-2.4762,-2.479,0,-2.4819,0,-2.4814,-2.4814,-2.4814,0,0,0,-2.4657,-2.4707,-2.4711,-2.4662,-2.4666,-2.4718,-2.4692,-2.4759,-2.4765,-2.4798,-2.482,-2.4823,-2.4816,-2.4815,-2.4815,-2.5011,-2.5012,0,0,-2.4654,-2.4675,-2.4706,-2.4715,-2.4708,-2.469,-2.4694,-2.4762,-2.4788,-2.482,-2.4824,-2.4817,-2.4815,-2.4816,-2.501,-2.5011,0,0,0,-2.4651,-2.4674,-2.4675,-2.4712,-2.472,-2.4692,-2.4696,-2.4785,-2.4783,-2.4825,-2.4818,-2.4816,-2.4817,-2.5008,-2.501,-2.5096,0,0,0,-2.4649,-2.4672,-2.4675,-2.4689,-2.4719,-2.4753,-2.4717,-2.4779,-2.4786,-2.4818,-2.4816,-2.4818,-2.5007,-2.5009,-2.5091,-2.5133,0,0,0,-2.4652,-2.4672,-2.4684,-2.469,-2.4713,-2.4751,-2.4754,-2.478,-2.4782,-2.4814,-2.4819,-2.5006,-2.5009,-2.5086,-2.5125,-2.5191,0,0,0,-2.4662,-2.476,-2.4686,-2.4793,-2.4713,-2.4805,-2.4753,-2.482,-2.4858,-2.4817,-2.5007,-2.501,-2.5084,-2.512,-2.5186,-2.525,-2.5279,0,0,-2.4798,-2.4777,-2.4838,-2.4774,-2.4884,-2.4795,-2.4918,-2.4932,-2.4915,-2.498,-2.4985,-2.5093,-2.5124,-2.519,-2.5435,-2.5458,0,0,0,-2.4889,-2.4933,-2.4957,-2.4995,-2.5008,-2.5023,-2.5016,-2.5022,-2.5076,-2.4953,-2.5134,-2.5152,-2.519,-2.5219,-2.5239,-2.527,-2.5025,-2.5024,-2.5024,-2.5111,-2.5085,-2.5184,-2.5165,-2.5202,-2.5195,-2.5222,-2.5228,-2.519,-2.5234,-2.5253,-2.5404,-2.544,-2.5454,-2.5487,-2.5285,-2.5285,-2.5286,-2.5286,-2.5307,-2.5365,-2.5314,-2.5392,-2.5364,-2.5429,-2.5427,-2.5398,-2.5455,-2.5388,-2.5419,-2.5347,-2.5481,-2.5508,-2.5292,-2.5291,-2.529,-2.529,-2.5289,-2.5449,-2.5472,-2.5478,-2.553,-2.5573,-2.555,-2.5608,-2.558,-2.5555,-2.5586,-2.5603,-2.5602,-2.5596,-2.5597,-2.5597,-2.5598,-2.5598,-2.5598,-2.5599,-2.5594,-2.5597,-2.5649,-2.5673,-2.5693,-2.5718,-2.5712,-2.5732,-2.5747,-2.5723,-2.5723,-2.5681,-2.5499,-2.5453,-2.5607,-2.5605,-2.5604,-2.5604,-2.5603,-2.5801,-2.575,-2.583,-2.5851,-2.5877,-2.5922,-2.5887,-2.593,-2.5943,-2.5973,-2.5925,-2.5795,-2.5771,-2.5755,-2.5717,-2.593,-2.593,-2.593,-2.593,-2.592,-2.5906,-2.5982,-2.6017,-2.6049,-2.6026,-2.6118,-2.6116,-2.6105,-2.6112,-2.6078,-2.6025,-2.601,-2.5996,-2.5975,-2.5939,-2.6203,-2.6203,-2.6203,-2.6045,-2.6034,-2.6116,-2.6106,-2.6125,-2.6142,-2.6227,-2.6271,-2.6249,-2.6214,-2.6116,-2.6105,-2.602,-2.5994,-2.5955,-2.5923,-2.5857,0,0]},{"header":{"parameterUnit":"m.s-1","parameterCategory":1,"la1":30.2992,"la2":30.254,"lo1":-89.0895,"lo2":-89.0443,"dy":0.0025,"dx":0.0025,"nx":19,"ny":19,"refTime":"2026-05-19T03:00:00:Z","depth":0,"parameterNumber":3,"parameterNumberName":"V-component_of_WINDS"},"data":[0,0,0,1.1263,1.1263,1.1267,1.1267,1.1274,1.1274,0,0,0,0,0,0,0,0,0,0,0,1.1264,1.1264,1.1263,1.1263,1.1267,1.1267,1.1274,1.1274,0,0,0,0,0,0,0,0,0,0,0,1.1264,1.1264,1.1264,1.1263,1.1267,1.1267,1.1274,1.127,0,0,0,0,0,0,0,0,0,0,1.1266,1.127,1.1264,1.1264,1.1263,1.1267,1.1267,1.127,1.1271,1.1274,0,1.1278,0,1.1277,1.1275,1.1275,0,0,0,1.1261,1.1269,1.1268,1.1264,1.1263,1.1267,1.1264,1.127,1.1271,1.1275,1.1279,1.1279,1.1277,1.1275,1.1275,1.1305,1.1305,0,0,1.1261,1.1266,1.1268,1.1269,1.1269,1.1264,1.1265,1.1271,1.1275,1.1279,1.1279,1.1277,1.1275,1.1275,1.1305,1.1305,0,0,0,1.1262,1.1266,1.1265,1.1269,1.1269,1.1265,1.1265,1.1274,1.1274,1.1279,1.1277,1.1275,1.1276,1.1305,1.1305,1.1322,0,0,0,1.1261,1.1266,1.1265,1.1267,1.1269,1.1272,1.1268,1.1273,1.1274,1.1277,1.1275,1.1276,1.1304,1.1305,1.1321,1.1329,0,0,0,1.1263,1.1266,1.1268,1.1268,1.127,1.1272,1.1271,1.1273,1.1273,1.1275,1.1276,1.1304,1.1305,1.132,1.1328,1.1339,0,0,0,1.1266,1.1281,1.1268,1.1285,1.127,1.1282,1.1271,1.128,1.1284,1.1276,1.1305,1.1305,1.132,1.1327,1.1338,1.135,1.1356,0,0,1.1288,1.1284,1.1294,1.1282,1.1298,1.1281,1.13,1.1299,1.1294,1.1302,1.1302,1.1321,1.1327,1.1339,1.1383,1.1388,0,0,0,1.1302,1.1309,1.1313,1.1318,1.1318,1.1319,1.1315,1.1314,1.1321,1.1299,1.1328,1.1332,1.1338,1.1344,1.1348,1.1353,1.1308,1.1308,1.1308,1.134,1.1335,1.135,1.1346,1.1351,1.1347,1.1351,1.135,1.1341,1.1349,1.1351,1.1378,1.1385,1.1388,1.1394,1.1356,1.1356,1.1356,1.1356,1.1372,1.1382,1.1372,1.1384,1.1379,1.1388,1.1386,1.138,1.1389,1.1376,1.1381,1.1368,1.1393,1.1398,1.1358,1.1357,1.1357,1.1357,1.1357,1.1397,1.14,1.1401,1.1409,1.1415,1.141,1.1419,1.1413,1.1407,1.1413,1.1415,1.1415,1.1415,1.1415,1.1415,1.1415,1.1415,1.1415,1.1415,1.1422,1.1422,1.1431,1.1434,1.1437,1.1441,1.1439,1.1442,1.1443,1.1438,1.1438,1.143,1.1396,1.1388,1.1417,1.1416,1.1416,1.1416,1.1416,1.1457,1.1449,1.1462,1.1466,1.147,1.1478,1.1471,1.1478,1.1479,1.1484,1.1475,1.1451,1.1446,1.1443,1.1437,1.1476,1.1476,1.1476,1.1476,1.1478,1.1475,1.1489,1.1495,1.1501,1.1497,1.1513,1.1512,1.1509,1.151,1.1503,1.1494,1.1491,1.1488,1.1484,1.1478,1.1527,1.1527,1.1527,1.15,1.1498,1.1513,1.1511,1.1515,1.1518,1.1533,1.1541,1.1536,1.1529,1.1511,1.1509,1.1493,1.1488,1.1481,1.1475,1.1463,0,0]}]]